EW3832 Weather Reports


time (UTC)temp
F
wind
direction
speed
knots
gust
knots
rain 1hr
in
rain 24hr
in
rain mn
in
humidity
%
barometer
mb
20260505140106 62 59 0.0 1.7 0.01 0.30 0.30 93 1013.3
20260505124540 60 46 0.0 1.7 0.03 0.28 0.28 93 1013.0
20260505123042 59 14 0.0 1.7 0.02 0.28 0.28 93 1012.9
20260505121540 59 14 0.0 0.0 0.03 0.28 0.28 93 1012.8
20260505120045 59 15 0.0 1.7 0.03 0.27 0.27 93 1012.9
20260505114544 59 5 0.0 3.5 0.03 0.26 0.26 93 1012.5
20260505113033 59 342 2.6 4.3 0.04 0.26 0.26 93 1012.4
20260505111532 60 24 1.7 3.5 0.04 0.25 0.25 93 1012.0
20260505101540 60 241 0.0 2.6 0.06 0.21 0.21 92 1011.9
20260505100025 60 274 0.0 1.7 0.06 0.19 0.19 92 1012.0
20260505094533 60 217 0.0 1.7 0.08 0.18 0.18 92 1012.0
20260505093021 60 315 0.0 2.6 0.08 0.16 0.16 92 1012.3
20260505091519 60 242 0.9 1.7 0.09 0.15 0.15 91 1013.1
20260505090021 60 241 0.0 1.7 0.07 0.12 0.12 91 1012.8
20260505084518 60 331 1.7 6.1 0.07 0.10 0.10 90 1013.1
20260505083021 60 217 0.0 6.1 0.07 0.08 0.08 90 1012.8
20260505081515 60 157 0.0 5.2 0.06 0.06 0.06 89 1012.7
20260505080014 60 249 0.9 5.2 0.04 0.04 0.04 88 1012.9
20260505074512 61 244 0.0 2.6 0.03 0.03 0.03 85 1012.7
20260505073008 62 237 1.7 5.2 0.01 0.01 0.01 82 1012.6
20260505071518 63 201 1.7 3.5 0.00 0.00 0.00 76 1012.2
20260505070003 63 179 0.0 1.7 0.00 0.00 0.00 75 1012.2
20260505064504 64 146 0.0 1.7 0.00 0.00 0.00 74 1012.5
20260505063059 64 175 0.0 5.2 0.00 0.00 0.00 74 1012.7
20260505061558 64 180 0.9 2.6 0.00 0.00 0.00 74 1013.0
20260505060057 63 202 0.9 3.5 0.00 0.00 0.00 74 1013.2
20260505054557 63 180 0.0 0.0 0.00 0.00 0.00 75 1013.1
20260505053055 63 180 0.0 1.7 0.00 0.00 0.00 74 1012.9
20260505051604 64 180 0.0 1.7 0.00 0.00 0.00 74 1013.1
20260505041549 65 180 0.0 1.7 0.00 0.00 0.00 71 1013.7
20260505040048 65 118 0.0 2.6 0.00 0.00 0.00 70 1013.7
20260505034649 65 157 0.0 2.6 0.00 0.00 0.00 70 1013.9
20260505033047 66 157 0.0 1.7 0.00 0.00 0.00 69 1014.0
20260505031552 67 197 0.0 1.7 0.00 0.00 0.00 67 1014.0
20260505030045 67 138 0.0 2.6 0.00 0.00 0.00 66 1014.0
20260505024544 68 199 0.0 1.7 0.00 0.00 0.00 64 1014.0
20260505023046 69 205 0.9 3.5 0.00 0.00 0.00 63 1013.6
20260505021543 69 220 1.7 3.5 0.00 0.00 0.00 62 1013.3
20260505020043 70 221 0.9 5.2 0.00 0.00 0.00 61 1013.1
20260505014542 70 218 2.6 7.0 0.00 0.00 0.00 60 1012.9
20260505013058 71 215 0.9 4.3 0.00 0.00 0.00 60 1012.6
20260505011540 72 225 0.9 3.5 0.00 0.00 0.00 59 1012.5
20260505010040 72 207 0.9 3.5 0.00 0.00 0.00 58 1012.2
20260505004540 73 202 0.9 4.3 0.00 0.00 0.00 56 1012.0
20260505003038 74 225 2.6 6.1 0.00 0.00 0.00 55 1011.8
20260505001538 74 223 3.5 7.8 0.00 0.00 0.00 53 1011.8
20260505000050 75 217 1.7 6.1 0.00 0.00 0.00 53 1011.7
20260504234536 76 209 3.5 8.7 0.00 0.00 0.00 52 1011.7
20260504233036 76 206 3.5 11.3 0.00 0.00 0.00 50 1011.9
20260504231533 77 213 3.5 9.6 0.00 0.00 0.00 49 1012.0
20260504230032 78 247 4.3 12.2 0.00 0.00 0.00 48 1012.1
20260504224532 78 230 5.2 11.3 0.00 0.00 0.00 47 1012.1
20260504223033 79 217 5.2 11.3 0.00 0.00 0.00 46 1012.2
20260504221529 79 190 6.1 10.4 0.00 0.00 0.00 45 1012.2
20260504220039 80 215 5.2 13.0 0.00 0.00 0.00 44 1012.2
20260504214528 81 207 4.3 9.6 0.00 0.00 0.00 43 1012.2
20260504213027 80 236 5.2 14.8 0.00 0.00 0.00 43 1012.3
20260504211534 80 228 7.0 13.9 0.00 0.00 0.00 42 1012.5
20260504210022 80 219 5.2 13.9 0.00 0.00 0.00 45 1012.7
20260504204523 80 215 5.2 15.6 0.00 0.00 0.00 45 1012.8
20260504203019 80 234 8.7 16.5 0.00 0.00 0.00 44 1013.0
20260504201516 80 211 7.8 16.5 0.00 0.00 0.00 44 1013.2
20260504200014 80 187 4.3 13.9 0.00 0.00 0.00 45 1013.2
20260504194512 80 213 5.2 13.9 0.00 0.00 0.00 48 1013.4
20260504193018 79 216 7.0 18.2 0.00 0.00 0.00 47 1013.5
20260504191512 79 275 7.0 12.2 0.00 0.00 0.00 46 1013.7
20260504190009 79 236 4.3 14.8 0.00 0.00 0.00 48 1013.7
20260504184504 78 110 6.1 14.8 0.00 0.00 0.00 51 1013.9
20260504183002 78 225 7.8 19.1 0.00 0.00 0.00 47 1014.0
20260504181600 78 205 7.0 13.9 0.00 0.00 0.00 49 1014.2
20260504180058 77 221 7.8 20.0 0.00 0.00 0.00 47 1014.3
20260504174556 78 251 7.8 17.4 0.00 0.00 0.00 49 1014.5
20260504173056 77 215 7.8 16.5 0.00 0.00 0.00 48 1014.4
20260504171557 76 167 7.0 20.0 0.00 0.00 0.00 48 1014.5